Location: Agenbach
(47.2667°N, 11.4500°E)
Time: 07:53:46
(UTC+00:00)

STARLINK-73 - Pass Details

Date: 07 June 2020
Orbit: 434 x 435 km, 53.0° (Epoch: 08 July)

Event Time Altitude Azimuth Distance (km) Brightness Sun altitude
Exits shadow 01:08:33 14° 146° (SE) 1,337 5.3 -15.3°
Drops below altitude 10° 01:11:12 10° 98° (E) 1,544 6.2 -15.1°
Enters shadow 02:06:11 -73° 241° (WSW) 12,650 10.4 -9.9°
Maximum altitude 02:45:52 82° 150° (SSE) 446 3.2 -5.2°
